Time,TemperatureF,DewpointF,PressureIn,WindDirection,WindDirectionDegrees,WindSpeedMPH,WindSpeedGustMPH,Humidity,HourlyPrecipIn,Conditions,Clouds,dailyrainin,SoftwareType,DateUTC
2013-06-18 00:01:00,82.4,74.8,30.06,South,180,2.0,4.0,78,0.00,,,0.00,meteohub,2013-06-18 04:01:00,
2013-06-18 00:02:00,82.4,74.8,30.06,South,180,1.0,4.0,78,0.00,,,0.00,meteohub,2013-06-18 04:02:00,
2013-06-18 00:04:00,82.4,74.5,30.06,South,180,2.0,4.0,77,0.00,,,0.00,meteohub,2013-06-18 04:04:00,
2013-06-18 00:09:00,82.4,74.8,30.06,SE,135,2.0,4.0,78,0.00,,,0.00,meteohub,2013-06-18 04:09:00,
2013-06-18 00:14:00,82.4,74.8,30.06,South,180,2.0,4.0,78,0.00,,,0.00,meteohub,2013-06-18 04:14:00,
2013-06-18 00:20:00,82.2,74.7,30.06,South,180,0.0,4.0,78,0.00,,,0.00,meteohub,2013-06-18 04:20:00,
2013-06-18 00:25:00,81.9,74.3,30.06,South,180,0.0,4.0,78,0.00,,,0.00,meteohub,2013-06-18 04:25:00,
2013-06-18 00:30:00,81.7,74.5,30.06,SW,225,0.0,4.0,79,0.00,,,0.00,meteohub,2013-06-18 04:30:00,
2013-06-18 00:35:00,81.3,74.5,30.06,SW,225,2.0,2.0,80,0.00,,,0.00,meteohub,2013-06-18 04:35:00,
2013-06-18 00:40:00,81.3,74.5,30.07,South,180,0.0,2.0,80,0.00,,,0.00,meteohub,2013-06-18 04:40:00,
2013-06-18 00:45:00,81.1,74.3,30.07,NE,45,0.0,2.0,80,0.00,,,0.00,meteohub,2013-06-18 04:45:00,
2013-06-18 00:50:00,81.0,74.7,30.06,NE,45,0.0,2.0,81,0.00,,,0.00,meteohub,2013-06-18 04:50:00,
2013-06-18 00:55:00,81.0,74.7,30.06,NE,45,0.0,0.0,81,0.00,,,0.00,meteohub,2013-06-18 04:55:00,
2013-06-18 01:00:00,80.4,74.8,30.06,NE,45,0.0,0.0,83,0.00,,,0.00,meteohub,2013-06-18 05:00:00,
2013-06-18 01:05:00,80.2,75.0,30.06,NE,45,0.0,0.0,84,0.00,,,0.00,meteohub,2013-06-18 05:05:00,
2013-06-18 01:10:00,80.1,74.8,30.06,NE,45,0.0,0.0,84,0.00,,,0.00,meteohub,2013-06-18 05:10:00,
2013-06-18 01:15:00,79.9,74.7,30.06,NE,45,0.0,0.0,84,0.00,,,0.00,meteohub,2013-06-18 05:15:00,
2013-06-18 01:20:00,79.9,74.7,30.06,NE,45,0.0,0.0,84,0.00,,,0.00,meteohub,2013-06-18 05:20:00,
2013-06-18 01:26:00,79.3,74.5,30.06,NE,45,0.0,0.0,85,0.00,,,0.00,meteohub,2013-06-18 05:26:00,
2013-06-18 01:31:00,79.2,74.7,30.06,NE,45,0.0,0.0,86,0.00,,,0.00,meteohub,2013-06-18 05:31:00,
2013-06-18 01:36:00,79.0,74.8,30.06,NE,45,0.0,0.0,87,0.00,,,0.00,meteohub,2013-06-18 05:36:00,
2013-06-18 01:41:00,79.0,74.8,30.05,NE,45,0.0,0.0,87,0.00,,,0.00,meteohub,2013-06-18 05:41:00,
2013-06-18 01:46:00,78.6,74.5,30.05,NE,45,0.0,0.0,87,0.00,,,0.00,meteohub,2013-06-18 05:46:00,
2013-06-18 01:51:00,78.6,74.8,30.05,NE,45,0.0,0.0,88,0.00,,,0.00,meteohub,2013-06-18 05:51:00,
2013-06-18 01:56:00,78.6,74.8,30.05,NE,45,0.0,0.0,88,0.00,,,0.00,meteohub,2013-06-18 05:56:00,
2013-06-18 02:01:00,78.4,74.7,30.04,NE,45,0.0,0.0,88,0.00,,,0.00,meteohub,2013-06-18 06:01:00,
2013-06-18 02:06:00,78.4,74.7,30.04,NE,45,0.0,0.0,88,0.00,,,0.00,meteohub,2013-06-18 06:06:00,
2013-06-18 02:11:00,78.3,74.7,30.04,NE,45,0.0,0.0,89,0.00,,,0.00,meteohub,2013-06-18 06:11:00,
2013-06-18 02:16:00,78.3,75.0,30.04,NE,45,0.0,0.0,90,0.00,,,0.00,meteohub,2013-06-18 06:16:00,
2013-06-18 02:21:00,78.1,74.8,30.04,NE,45,0.0,0.0,90,0.00,,,0.00,meteohub,2013-06-18 06:21:00,
2013-06-18 02:26:00,78.1,75.2,30.04,NE,45,0.0,0.0,91,0.00,,,0.00,meteohub,2013-06-18 06:26:00,
2013-06-18 02:31:00,77.9,75.0,30.04,NE,45,0.0,0.0,91,0.00,,,0.00,meteohub,2013-06-18 06:31:00,
2013-06-18 02:37:00,77.9,75.0,30.04,NE,45,0.0,0.0,91,0.00,,,0.00,meteohub,2013-06-18 06:37:00,
2013-06-18 02:42:00,77.7,75.2,30.03,NE,45,0.0,0.0,92,0.00,,,0.00,meteohub,2013-06-18 06:42:00,
2013-06-18 02:47:00,77.7,75.2,30.03,NE,45,0.0,0.0,92,0.00,,,0.00,meteohub,2013-06-18 06:47:00,
2013-06-18 02:52:00,77.5,75.0,30.03,NE,45,0.0,0.0,92,0.00,,,0.00,meteohub,2013-06-18 06:52:00,
2013-06-18 02:57:00,77.5,75.0,30.04,NE,45,0.0,0.0,92,0.00,,,0.00,meteohub,2013-06-18 06:57:00,
2013-06-18 03:02:00,77.5,75.0,30.03,NE,45,0.0,0.0,92,0.00,,,0.00,meteohub,2013-06-18 07:02:00,
2013-06-18 03:07:00,77.4,75.2,30.03,NE,45,0.0,0.0,93,0.00,,,0.00,meteohub,2013-06-18 07:07:00,
2013-06-18 03:12:00,77.2,75.0,30.03,NE,45,0.0,0.0,93,0.00,,,0.00,meteohub,2013-06-18 07:12:00,
2013-06-18 03:17:00,77.2,75.0,30.04,NE,45,0.0,0.0,93,0.00,,,0.00,meteohub,2013-06-18 07:17:00,
2013-06-18 03:22:00,77.2,75.0,30.04,NE,45,0.0,0.0,93,0.00,,,0.00,meteohub,2013-06-18 07:22:00,
2013-06-18 03:27:00,77.2,75.0,30.03,NE,45,0.0,0.0,93,0.00,,,0.00,meteohub,2013-06-18 07:27:00,
2013-06-18 03:32:00,77.2,75.0,30.03,NE,45,0.0,0.0,93,0.00,,,0.00,meteohub,2013-06-18 07:32:00,
2013-06-18 03:37:00,77.2,75.0,30.03,NE,45,0.0,0.0,93,0.00,,,0.00,meteohub,2013-06-18 07:37:00,
2013-06-18 03:42:00,77.2,75.0,30.03,NE,45,0.0,0.0,93,0.00,,,0.00,meteohub,2013-06-18 07:42:00,
2013-06-18 03:47:00,77.2,75.0,30.03,NE,45,0.0,0.0,93,0.00,,,0.00,meteohub,2013-06-18 07:47:00,
2013-06-18 03:52:00,77.0,75.2,30.02,NE,45,0.0,0.0,94,0.00,,,0.00,meteohub,2013-06-18 07:52:00,
2013-06-18 03:57:00,76.8,75.0,30.03,NE,45,0.0,0.0,94,0.00,,,0.00,meteohub,2013-06-18 07:57:00,
2013-06-18 04:02:00,76.8,75.0,30.03,NE,45,0.0,0.0,94,0.00,,,0.00,meteohub,2013-06-18 08:02:00,
2013-06-18 04:07:00,76.8,75.0,30.02,NE,45,0.0,0.0,94,0.00,,,0.00,meteohub,2013-06-18 08:07:00,
2013-06-18 04:12:00,76.8,75.0,30.02,NE,45,0.0,0.0,94,0.00,,,0.00,meteohub,2013-06-18 08:12:00,
2013-06-18 04:17:00,76.6,74.8,30.02,NE,45,0.0,0.0,94,0.00,,,0.00,meteohub,2013-06-18 08:17:00,
2013-06-18 04:22:00,76.6,74.8,30.02,NE,45,1.0,0.0,94,0.00,,,0.00,meteohub,2013-06-18 08:22:00,
2013-06-18 04:27:00,76.8,75.2,30.02,NE,45,0.0,1.0,95,0.00,,,0.00,meteohub,2013-06-18 08:27:00,
2013-06-18 04:32:00,76.6,75.0,30.01,NE,45,0.0,1.0,95,0.00,,,0.00,meteohub,2013-06-18 08:32:00,
2013-06-18 04:37:00,76.6,75.0,30.02,NE,45,0.0,1.0,95,0.00,,,0.00,meteohub,2013-06-18 08:37:00,
2013-06-18 04:42:00,76.5,74.8,30.01,NE,45,0.0,0.0,95,0.00,,,0.00,meteohub,2013-06-18 08:42:00,
2013-06-18 04:47:00,76.5,74.8,30.02,NE,45,0.0,0.0,95,0.00,,,0.00,meteohub,2013-06-18 08:47:00,
2013-06-18 04:52:00,76.3,74.7,30.01,NE,45,0.0,0.0,95,0.00,,,0.00,meteohub,2013-06-18 08:52:00,
2013-06-18 04:57:00,76.3,74.7,30.02,NE,45,0.0,0.0,95,0.00,,,0.00,meteohub,2013-06-18 08:57:00,
2013-06-18 05:02:00,76.3,74.7,30.01,NE,45,0.0,0.0,95,0.00,,,0.00,meteohub,2013-06-18 09:02:00,
2013-06-18 05:07:00,76.3,74.7,30.01,NE,45,0.0,0.0,95,0.00,,,0.00,meteohub,2013-06-18 09:07:00,
2013-06-18 05:12:00,76.1,74.8,30.01,NE,45,0.0,0.0,96,0.00,,,0.00,meteohub,2013-06-18 09:12:00,
2013-06-18 05:17:00,75.9,74.7,30.01,NE,45,0.0,1.0,96,0.00,,,0.00,meteohub,2013-06-18 09:17:00,
2013-06-18 05:22:00,75.9,74.7,30.02,NE,45,0.0,1.0,96,0.00,,,0.00,meteohub,2013-06-18 09:22:00,
2013-06-18 05:27:00,75.9,74.7,30.02,NE,45,0.0,1.0,96,0.00,,,0.00,meteohub,2013-06-18 09:27:00,
2013-06-18 05:32:00,75.7,74.5,30.02,NE,45,0.0,0.0,96,0.00,,,0.00,meteohub,2013-06-18 09:32:00,
2013-06-18 05:37:00,75.7,74.5,30.02,NE,45,0.0,0.0,96,0.00,,,0.00,meteohub,2013-06-18 09:37:00,
2013-06-18 05:42:00,75.7,74.5,30.02,NE,45,0.0,0.0,96,0.00,,,0.00,meteohub,2013-06-18 09:42:00,
2013-06-18 05:47:00,75.7,74.8,30.03,NE,45,0.0,0.0,97,0.00,,,0.00,meteohub,2013-06-18 09:47:00,
2013-06-18 05:52:00,75.7,74.8,30.03,NE,45,0.0,0.0,97,0.00,,,0.00,meteohub,2013-06-18 09:52:00,
2013-06-18 05:57:00,75.9,75.0,30.03,NE,45,0.0,0.0,97,0.00,,,0.00,meteohub,2013-06-18 09:57:00,
2013-06-18 06:02:00,75.9,75.0,30.03,NE,45,0.0,0.0,97,0.00,,,0.00,meteohub,2013-06-18 10:02:00,
2013-06-18 06:07:00,75.9,75.0,30.04,NE,45,0.0,0.0,97,0.00,,,0.00,meteohub,2013-06-18 10:07:00,
2013-06-18 06:12:00,75.6,74.7,30.03,NE,45,0.0,0.0,97,0.00,,,0.00,meteohub,2013-06-18 10:12:00,
2013-06-18 06:17:00,75.6,74.7,30.03,NE,45,0.0,0.0,97,0.00,,,0.00,meteohub,2013-06-18 10:17:00,
2013-06-18 06:22:00,75.6,74.7,30.04,NE,45,0.0,0.0,97,0.00,,,0.00,meteohub,2013-06-18 10:22:00,
2013-06-18 06:27:00,75.6,74.7,30.04,NE,45,0.0,0.0,97,0.00,,,0.00,meteohub,2013-06-18 10:27:00,
2013-06-18 06:32:00,75.6,74.7,30.04,NE,45,0.0,0.0,97,0.00,,,0.00,meteohub,2013-06-18 10:32:00,
2013-06-18 06:37:00,75.6,74.7,30.03,NE,45,0.0,0.0,97,0.00,,,0.00,meteohub,2013-06-18 10:37:00,
2013-06-18 06:42:00,75.4,74.5,30.03,NE,45,0.0,0.0,97,0.00,,,0.00,meteohub,2013-06-18 10:42:00,
2013-06-18 06:47:00,75.4,74.8,30.04,NE,45,0.0,0.0,98,0.00,,,0.00,meteohub,2013-06-18 10:47:00,
2013-06-18 06:52:00,75.4,74.8,30.03,NE,45,0.0,0.0,98,0.00,,,0.00,meteohub,2013-06-18 10:52:00,
2013-06-18 06:57:00,75.4,74.8,30.04,NE,45,0.0,0.0,98,0.00,,,0.00,meteohub,2013-06-18 10:57:00,
2013-06-18 07:02:00,75.6,75.0,30.04,NE,45,0.0,0.0,98,0.00,,,0.00,meteohub,2013-06-18 11:02:00,
2013-06-18 07:07:00,75.6,75.0,30.04,NE,45,0.0,0.0,98,0.00,,,0.00,meteohub,2013-06-18 11:07:00,
2013-06-18 07:12:00,75.9,75.4,30.04,NE,45,0.0,0.0,98,0.00,,,0.00,meteohub,2013-06-18 11:12:00,
2013-06-18 07:17:00,76.3,75.7,30.03,NE,45,0.0,0.0,98,0.00,,,0.00,meteohub,2013-06-18 11:17:00,
2013-06-18 07:22:00,76.6,76.1,30.04,NE,45,0.0,0.0,98,0.00,,,0.00,meteohub,2013-06-18 11:22:00,
2013-06-18 07:27:00,77.4,77.0,30.04,NE,45,1.0,0.0,99,0.00,,,0.00,meteohub,2013-06-18 11:27:00,
2013-06-18 07:32:00,78.4,77.9,30.04,NE,45,1.0,1.0,98,0.00,,,0.00,meteohub,2013-06-18 11:32:00,
2013-06-18 07:37:00,80.4,79.9,30.04,NE,45,0.0,2.0,98,0.00,,,0.00,meteohub,2013-06-18 11:37:00,
2013-06-18 07:42:00,82.8,81.1,30.04,NW,315,0.0,2.0,95,0.00,,,0.00,meteohub,2013-06-18 11:42:00,
2013-06-18 07:47:00,84.9,81.0,30.04,NW,315,0.0,1.0,88,0.00,,,0.00,meteohub,2013-06-18 11:47:00,
2013-06-18 07:52:00,86.9,81.5,30.05,NW,315,0.0,0.0,84,0.00,,,0.00,meteohub,2013-06-18 11:52:00,
2013-06-18 07:57:00,88.5,80.4,30.05,North,0,0.0,0.0,77,0.00,,,0.00,meteohub,2013-06-18 11:57:00,
2013-06-18 08:02:00,89.1,80.4,30.05,North,0,0.0,0.0,76,0.00,,,0.00,meteohub,2013-06-18 12:02:00,
2013-06-18 08:07:00,89.8,77.4,30.05,North,0,2.0,0.0,67,0.00,,,0.00,meteohub,2013-06-18 12:07:00,
2013-06-18 08:13:00,89.6,77.2,30.06,East,90,2.0,2.0,67,0.00,,,0.00,meteohub,2013-06-18 12:13:00,
2013-06-18 08:18:00,90.1,77.7,30.06,South,180,1.0,2.0,67,0.00,,,0.00,meteohub,2013-06-18 12:18:00,
2013-06-18 08:23:00,90.3,76.5,30.06,East,90,1.0,2.0,64,0.00,,,0.00,meteohub,2013-06-18 12:23:00,
2013-06-18 08:28:00,90.7,75.4,30.06,SW,225,3.0,3.0,61,0.00,,,0.00,meteohub,2013-06-18 12:28:00,
2013-06-18 08:33:00,90.7,74.3,30.06,East,90,2.0,3.0,59,0.00,,,0.00,meteohub,2013-06-18 12:33:00,
2013-06-18 08:38:00,89.6,73.9,30.06,South,180,4.0,4.0,60,0.00,,,0.00,meteohub,2013-06-18 12:38:00,
2013-06-18 08:43:00,88.9,73.8,30.06,East,90,2.0,4.0,61,0.00,,,0.00,meteohub,2013-06-18 12:43:00,
2013-06-18 08:48:00,88.3,74.1,30.06,SE,135,2.0,4.0,63,0.00,,,0.00,meteohub,2013-06-18 12:48:00,
2013-06-18 08:53:00,87.1,73.9,30.06,SE,135,3.0,5.0,65,0.00,,,0.00,meteohub,2013-06-18 12:53:00,
2013-06-18 08:59:00,87.4,75.6,30.06,East,90,1.0,5.0,68,0.00,,,0.00,meteohub,2013-06-18 12:59:00,
2013-06-18 09:04:00,88.2,75.7,30.06,East,90,2.0,5.0,67,0.00,,,0.00,meteohub,2013-06-18 13:04:00,
2013-06-18 09:09:00,89.6,74.8,30.06,North,0,3.0,4.0,62,0.00,,,0.00,meteohub,2013-06-18 13:09:00,
2013-06-18 09:14:00,90.0,73.2,30.06,SE,135,4.0,4.0,58,0.00,,,0.00,meteohub,2013-06-18 13:14:00,
2013-06-18 09:19:00,90.0,72.7,30.06,East,90,4.0,4.0,57,0.00,,,0.00,meteohub,2013-06-18 13:19:00,
2013-06-18 09:24:00,90.1,72.9,30.06,NE,45,3.0,4.0,57,0.00,,,0.00,meteohub,2013-06-18 13:24:00,
2013-06-18 09:29:00,88.9,73.8,30.06,East,90,2.0,4.0,61,0.00,,,0.00,meteohub,2013-06-18 13:29:00,
2013-06-18 09:34:00,89.4,73.2,30.06,East,90,4.0,4.0,59,0.00,,,0.00,meteohub,2013-06-18 13:34:00,
2013-06-18 09:39:00,89.4,73.8,30.06,SE,135,4.0,4.0,60,0.00,,,0.00,meteohub,2013-06-18 13:39:00,
2013-06-18 09:44:00,90.1,73.4,30.06,SE,135,3.0,4.0,58,0.00,,,0.00,meteohub,2013-06-18 13:44:00,
2013-06-18 09:49:00,90.0,72.1,30.06,East,90,4.0,4.0,56,0.00,,,0.00,meteohub,2013-06-18 13:49:00,
2013-06-18 09:54:00,90.1,73.4,30.06,East,90,3.0,4.0,58,0.00,,,0.00,meteohub,2013-06-18 13:54:00,
2013-06-18 09:59:00,88.9,72.7,30.06,SE,135,5.0,7.0,59,0.00,,,0.00,meteohub,2013-06-18 13:59:00,
2013-06-18 10:04:00,87.4,72.9,30.06,East,90,3.0,8.0,62,0.00,,,0.00,meteohub,2013-06-18 14:04:00,
2013-06-18 10:10:00,87.8,73.6,30.06,SE,135,4.0,8.0,63,0.00,,,0.00,meteohub,2013-06-18 14:10:00,
2013-06-18 10:15:00,87.3,73.6,30.06,SE,135,2.0,8.0,64,0.00,,,0.00,meteohub,2013-06-18 14:15:00,
2013-06-18 10:20:00,87.3,73.6,30.06,SE,135,2.0,8.0,64,0.00,,,0.00,meteohub,2013-06-18 14:20:00,
2013-06-18 10:25:00,88.0,73.4,30.06,East,90,4.0,8.0,62,0.00,,,0.00,meteohub,2013-06-18 14:25:00,
2013-06-18 10:30:00,87.4,72.9,30.06,SE,135,4.0,5.0,62,0.00,,,0.00,meteohub,2013-06-18 14:30:00,
2013-06-18 10:35:00,88.3,73.2,30.06,SE,135,5.0,5.0,61,0.00,,,0.00,meteohub,2013-06-18 14:35:00,
2013-06-18 10:40:00,88.5,74.3,30.06,East,90,4.0,6.0,63,0.00,,,0.00,meteohub,2013-06-18 14:40:00,
2013-06-18 10:45:00,87.6,73.9,30.06,SE,135,5.0,8.0,64,0.00,,,0.00,meteohub,2013-06-18 14:45:00,
2013-06-18 10:50:00,89.2,75.0,30.06,East,90,4.0,8.0,63,0.00,,,0.00,meteohub,2013-06-18 14:50:00,
2013-06-18 10:55:00,88.5,73.4,30.06,SE,135,7.0,8.0,61,0.00,,,0.00,meteohub,2013-06-18 14:55:00,
2013-06-18 11:00:00,89.2,74.5,30.06,NW,315,5.0,8.0,62,0.00,,,0.00,meteohub,2013-06-18 15:00:00,
2013-06-18 11:05:00,89.2,74.5,30.06,NW,315,5.0,8.0,62,0.00,,,0.00,meteohub,2013-06-18 15:05:00,
2013-06-18 11:10:00,89.4,74.7,30.06,SE,135,4.0,7.0,62,0.00,,,0.00,meteohub,2013-06-18 15:10:00,
2013-06-18 11:15:00,88.3,73.6,30.07,South,180,10.0,10.0,62,0.00,,,0.00,meteohub,2013-06-18 15:15:00,
2013-06-18 11:20:00,88.5,74.8,30.06,SE,135,6.0,10.0,64,0.00,,,0.00,meteohub,2013-06-18 15:20:00,
2013-06-18 11:26:00,89.2,74.5,30.06,SE,135,9.0,10.0,62,0.00,,,0.00,meteohub,2013-06-18 15:26:00,
2013-06-18 11:31:00,88.9,74.7,30.06,ESE,113,6.0,10.0,63,0.00,,,0.00,meteohub,2013-06-18 15:31:00,
2013-06-18 11:36:00,88.5,74.8,30.06,SE,135,3.0,10.0,64,0.00,,,0.00,meteohub,2013-06-18 15:36:00,
2013-06-18 11:41:00,89.1,74.8,30.06,East,90,2.0,10.0,63,0.00,,,0.00,meteohub,2013-06-18 15:41:00,
2013-06-18 11:46:00,90.1,74.8,30.06,ESE,113,5.0,8.0,61,0.00,,,0.00,meteohub,2013-06-18 15:46:00,
2013-06-18 11:51:00,90.3,75.0,30.06,South,180,8.0,8.0,61,0.00,,,0.00,meteohub,2013-06-18 15:51:00,
2013-06-18 11:56:00,89.6,73.9,30.06,South,180,6.0,8.0,60,0.00,,,0.00,meteohub,2013-06-18 15:56:00,
2013-06-18 12:01:00,88.9,74.7,30.06,SW,225,8.0,8.0,63,0.00,,,0.00,meteohub,2013-06-18 16:01:00,
2013-06-18 12:06:00,88.7,74.5,30.06,SW,225,4.0,9.0,63,0.00,,,0.00,meteohub,2013-06-18 16:06:00,
2013-06-18 12:11:00,88.7,75.0,30.06,East,90,5.0,9.0,64,0.00,,,0.00,meteohub,2013-06-18 16:11:00,
2013-06-18 12:16:00,88.9,75.2,30.06,SE,135,8.0,9.0,64,0.00,,,0.00,meteohub,2013-06-18 16:16:00,
2013-06-18 12:21:00,88.9,75.2,30.06,SE,135,8.0,8.0,64,0.00,,,0.00,meteohub,2013-06-18 16:21:00,
2013-06-18 12:26:00,90.5,74.7,30.06,East,90,4.0,8.0,60,0.00,,,0.00,meteohub,2013-06-18 16:26:00,
2013-06-18 12:31:00,90.5,74.7,30.06,East,90,8.0,11.0,60,0.00,,,0.00,meteohub,2013-06-18 16:31:00,
2013-06-18 12:37:00,90.9,74.5,30.06,South,180,7.0,11.0,59,0.00,,,0.00,meteohub,2013-06-18 16:37:00,
2013-06-18 12:42:00,90.9,75.0,30.06,SE,135,10.0,11.0,60,0.00,,,0.00,meteohub,2013-06-18 16:42:00,
2013-06-18 12:47:00,90.7,74.8,30.06,SE,135,9.0,12.0,60,0.00,,,0.00,meteohub,2013-06-18 16:47:00,
2013-06-18 12:52:00,90.9,76.1,30.06,SW,225,4.0,12.0,62,0.00,,,0.00,meteohub,2013-06-18 16:52:00,
2013-06-18 12:57:00,90.9,74.5,30.06,East,90,6.0,12.0,59,0.00,,,0.00,meteohub,2013-06-18 16:57:00,
2013-06-18 13:02:00,90.7,74.8,30.06,SE,135,4.0,11.0,60,0.00,,,0.00,meteohub,2013-06-18 17:02:00,
2013-06-18 13:07:00,90.7,74.8,30.06,SE,135,4.0,11.0,60,0.00,,,0.00,meteohub,2013-06-18 17:07:00,
2013-06-18 13:12:00,91.0,74.1,30.06,SE,135,4.0,9.0,58,0.00,,,0.00,meteohub,2013-06-18 17:12:00,
2013-06-18 13:17:00,90.7,75.4,30.06,South,180,8.0,12.0,61,0.00,,,0.00,meteohub,2013-06-18 17:17:00,
2013-06-18 13:22:00,91.0,74.7,30.06,SW,225,11.0,12.0,59,0.00,,,0.00,meteohub,2013-06-18 17:22:00,
2013-06-18 13:27:00,90.9,75.0,30.06,SE,135,8.0,12.0,60,0.00,,,0.00,meteohub,2013-06-18 17:27:00,
2013-06-18 13:32:00,90.9,73.6,30.05,East,90,8.0,11.0,57,0.00,,,0.00,meteohub,2013-06-18 17:32:00,
2013-06-18 13:37:00,90.9,74.1,30.05,SE,135,10.0,11.0,58,0.00,,,0.00,meteohub,2013-06-18 17:37:00,
2013-06-18 13:42:00,90.9,74.5,30.06,South,180,6.0,11.0,59,0.00,,,0.00,meteohub,2013-06-18 17:42:00,
2013-06-18 13:47:00,90.3,74.5,30.05,East,90,7.0,11.0,60,0.00,,,0.00,meteohub,2013-06-18 17:47:00,
2013-06-18 13:52:00,90.3,74.5,30.05,SE,135,6.0,11.0,60,0.00,,,0.00,meteohub,2013-06-18 17:52:00,
2013-06-18 13:57:00,90.1,74.3,30.06,SE,135,8.0,10.0,60,0.00,,,0.00,meteohub,2013-06-18 17:57:00,
2013-06-18 14:02:00,90.1,74.8,30.05,South,180,4.0,9.0,61,0.00,,,0.00,meteohub,2013-06-18 18:02:00,
2013-06-18 14:07:00,90.1,74.8,30.04,South,180,4.0,9.0,61,0.00,,,0.00,meteohub,2013-06-18 18:07:00,
2013-06-18 14:12:00,90.9,74.1,30.04,East,90,5.0,9.0,58,0.00,,,0.00,meteohub,2013-06-18 18:12:00,
2013-06-18 14:17:00,90.9,74.5,30.04,SE,135,8.0,10.0,59,0.00,,,0.00,meteohub,2013-06-18 18:17:00,
2013-06-18 14:22:00,90.9,74.5,30.04,East,90,4.0,11.0,59,0.00,,,0.00,meteohub,2013-06-18 18:22:00,
2013-06-18 14:27:00,91.4,73.9,30.04,SW,225,9.0,11.0,57,0.00,,,0.00,meteohub,2013-06-18 18:27:00,
2013-06-18 14:32:00,90.9,74.1,30.04,East,90,4.0,11.0,58,0.00,,,0.00,meteohub,2013-06-18 18:32:00,
2013-06-18 14:37:00,91.2,75.4,30.04,East,90,2.0,11.0,60,0.00,,,0.00,meteohub,2013-06-18 18:37:00,
2013-06-18 14:42:00,91.9,75.6,30.03,SW,225,3.0,11.0,59,0.00,,,0.00,meteohub,2013-06-18 18:42:00,
2013-06-18 14:47:00,91.8,74.3,30.03,SE,135,4.0,8.0,57,0.00,,,0.00,meteohub,2013-06-18 18:47:00,
2013-06-18 14:52:00,92.3,74.3,30.03,South,180,3.0,10.0,56,0.00,,,0.00,meteohub,2013-06-18 18:52:00,
2013-06-18 14:57:00,92.5,73.4,30.03,NNW,338,7.0,10.0,54,0.00,,,0.00,meteohub,2013-06-18 18:57:00,
2013-06-18 15:02:00,91.8,73.8,30.03,East,90,8.0,9.0,56,0.00,,,0.00,meteohub,2013-06-18 19:02:00,
2013-06-18 15:07:00,91.8,74.8,30.03,SE,135,4.0,10.0,58,0.00,,,0.00,meteohub,2013-06-18 19:07:00,
2013-06-18 15:12:00,91.2,75.4,30.03,SW,225,8.0,10.0,60,0.00,,,0.00,meteohub,2013-06-18 19:12:00,
2013-06-18 15:17:00,91.4,74.5,30.02,SW,225,5.0,8.0,58,0.00,,,0.00,meteohub,2013-06-18 19:17:00,
2013-06-18 15:22:00,91.9,73.9,30.03,SE,135,4.0,11.0,56,0.00,,,0.00,meteohub,2013-06-18 19:22:00,
2013-06-18 15:27:00,91.8,73.8,30.02,East,90,5.0,11.0,56,0.00,,,0.00,meteohub,2013-06-18 19:27:00,
2013-06-18 15:32:00,91.2,74.8,30.03,SE,135,4.0,11.0,59,0.00,,,0.00,meteohub,2013-06-18 19:32:00,
2013-06-18 15:37:00,91.8,74.8,30.02,East,90,4.0,9.0,58,0.00,,,0.00,meteohub,2013-06-18 19:37:00,
2013-06-18 15:42:00,92.5,74.5,30.02,NW,315,3.0,8.0,56,0.00,,,0.00,meteohub,2013-06-18 19:42:00,
2013-06-18 15:47:00,92.8,74.8,30.02,SW,225,6.0,8.0,56,0.00,,,0.00,meteohub,2013-06-18 19:47:00,
2013-06-18 15:52:00,91.9,75.0,30.02,East,90,5.0,8.0,58,0.00,,,0.00,meteohub,2013-06-18 19:52:00,
2013-06-18 15:57:00,91.8,74.3,30.02,SE,135,7.0,10.0,57,0.00,,,0.00,meteohub,2013-06-18 19:57:00,
2013-06-18 16:02:00,91.9,75.6,30.02,SE,135,4.0,10.0,59,0.00,,,0.00,meteohub,2013-06-18 20:02:00,
2013-06-18 16:07:00,91.6,73.6,30.01,South,180,6.0,10.0,56,0.00,,,0.00,meteohub,2013-06-18 20:07:00,
2013-06-18 16:12:00,91.6,74.7,30.01,SE,135,4.0,9.0,58,0.00,,,0.00,meteohub,2013-06-18 20:12:00,
2013-06-18 16:17:00,92.3,74.8,30.01,South,180,6.0,9.0,57,0.00,,,0.00,meteohub,2013-06-18 20:17:00,
2013-06-18 16:22:00,92.3,74.8,30.01,South,180,6.0,9.0,57,0.00,,,0.00,meteohub,2013-06-18 20:22:00,
2013-06-18 16:27:00,92.5,73.9,30.01,South,180,7.0,7.0,55,0.00,,,0.00,meteohub,2013-06-18 20:27:00,
2013-06-18 16:32:00,92.7,74.1,30.00,South,180,8.0,8.0,55,0.00,,,0.00,meteohub,2013-06-18 20:32:00,
2013-06-18 16:37:00,91.9,73.9,30.01,South,180,10.0,10.0,56,0.00,,,0.00,meteohub,2013-06-18 20:37:00,
2013-06-18 16:42:00,91.8,74.8,30.00,SE,135,4.0,8.0,58,0.00,,,0.00,meteohub,2013-06-18 20:42:00,
2013-06-18 16:48:00,91.9,73.4,30.00,South,180,9.0,10.0,55,0.00,,,0.00,meteohub,2013-06-18 20:48:00,
2013-06-18 16:53:00,91.9,73.9,30.00,South,180,4.0,11.0,56,0.00,,,0.00,meteohub,2013-06-18 20:53:00,
2013-06-18 16:58:00,91.6,74.1,30.00,SE,135,5.0,11.0,57,0.00,,,0.00,meteohub,2013-06-18 20:58:00,
2013-06-18 17:03:00,91.9,73.9,30.00,South,180,8.0,11.0,56,0.00,,,0.00,meteohub,2013-06-18 21:03:00,
2013-06-18 17:08:00,91.8,73.8,30.00,SE,135,6.0,8.0,56,0.00,,,0.00,meteohub,2013-06-18 21:08:00,
2013-06-18 17:13:00,91.6,74.1,30.00,SE,135,6.0,8.0,57,0.00,,,0.00,meteohub,2013-06-18 21:13:00,
2013-06-18 17:18:00,91.2,74.3,30.00,SW,225,8.0,8.0,58,0.00,,,0.00,meteohub,2013-06-18 21:18:00,
2013-06-18 17:23:00,91.4,75.0,29.99,West,270,6.0,8.0,59,0.00,,,0.00,meteohub,2013-06-18 21:23:00,
2013-06-18 17:28:00,92.1,75.7,29.99,SW,225,4.0,11.0,59,0.00,,,0.00,meteohub,2013-06-18 21:28:00,
2013-06-18 17:33:00,92.3,74.3,29.99,SE,135,5.0,11.0,56,0.00,,,0.00,meteohub,2013-06-18 21:33:00,
2013-06-18 17:39:00,91.4,73.9,29.99,SE,135,7.0,9.0,57,0.00,,,0.00,meteohub,2013-06-18 21:39:00,
2013-06-18 17:44:00,91.4,74.5,29.99,South,180,7.0,10.0,58,0.00,,,0.00,meteohub,2013-06-18 21:44:00,
2013-06-18 17:49:00,91.0,74.1,29.99,SE,135,8.0,10.0,58,0.00,,,0.00,meteohub,2013-06-18 21:49:00,
2013-06-18 17:54:00,90.9,75.0,29.99,SE,135,4.0,10.0,60,0.00,,,0.00,meteohub,2013-06-18 21:54:00,
2013-06-18 17:59:00,90.9,75.0,29.99,South,180,8.0,10.0,60,0.00,,,0.00,meteohub,2013-06-18 21:59:00,
2013-06-18 18:04:00,90.9,75.0,29.99,SW,225,6.0,10.0,60,0.00,,,0.00,meteohub,2013-06-18 22:04:00,
2013-06-18 18:09:00,91.4,74.5,29.99,SW,225,2.0,8.0,58,0.00,,,0.00,meteohub,2013-06-18 22:09:00,
2013-06-18 18:14:00,91.6,74.7,29.99,SW,225,4.0,8.0,58,0.00,,,0.00,meteohub,2013-06-18 22:14:00,
2013-06-18 18:19:00,92.3,74.8,29.99,SE,135,6.0,7.0,57,0.00,,,0.00,meteohub,2013-06-18 22:19:00,
2013-06-18 18:24:00,91.4,73.4,29.99,South,180,8.0,8.0,56,0.00,,,0.00,meteohub,2013-06-18 22:24:00,
2013-06-18 18:29:00,91.0,74.1,29.98,East,90,4.0,7.0,58,0.00,,,0.00,meteohub,2013-06-18 22:29:00,
2013-06-18 18:35:00,90.7,73.9,29.98,SE,135,5.0,8.0,58,0.00,,,0.00,meteohub,2013-06-18 22:35:00,
2013-06-18 18:40:00,90.9,74.1,29.99,SE,135,4.0,8.0,58,0.00,,,0.00,meteohub,2013-06-18 22:40:00,
2013-06-18 18:45:00,90.5,73.8,29.99,West,270,4.0,7.0,58,0.00,,,0.00,meteohub,2013-06-18 22:45:00,
2013-06-18 18:50:00,89.4,74.1,29.99,SE,135,3.0,9.0,61,0.00,,,0.00,meteohub,2013-06-18 22:50:00,
2013-06-18 18:55:00,90.0,75.2,29.99,South,180,4.0,9.0,62,0.00,,,0.00,meteohub,2013-06-18 22:55:00,
2013-06-18 19:00:00,90.0,74.1,29.99,South,180,7.0,8.0,60,0.00,,,0.00,meteohub,2013-06-18 23:00:00,
2013-06-18 19:05:00,89.4,74.7,29.99,West,270,4.0,8.0,62,0.00,,,0.00,meteohub,2013-06-18 23:05:00,
2013-06-18 19:10:00,89.4,74.1,29.99,SW,225,7.0,8.0,61,0.00,,,0.00,meteohub,2013-06-18 23:10:00,
2013-06-18 19:15:00,88.7,74.5,29.99,East,90,3.0,8.0,63,0.00,,,0.00,meteohub,2013-06-18 23:15:00,
2013-06-18 19:20:00,87.8,74.5,29.99,South,180,5.0,8.0,65,0.00,,,0.00,meteohub,2013-06-18 23:20:00,
2013-06-18 19:25:00,87.3,75.0,29.99,South,180,5.0,7.0,67,0.00,,,0.00,meteohub,2013-06-18 23:25:00,
2013-06-18 19:30:00,87.1,74.8,29.99,SE,135,2.0,6.0,67,0.00,,,0.00,meteohub,2013-06-18 23:30:00,
2013-06-18 19:36:00,86.7,74.5,29.99,SE,135,3.0,5.0,67,0.00,,,0.00,meteohub,2013-06-18 23:36:00,
2013-06-18 19:41:00,86.5,74.7,29.99,South,180,4.0,5.0,68,0.00,,,0.00,meteohub,2013-06-18 23:41:00,
2013-06-18 19:46:00,86.0,74.1,29.99,SW,225,4.0,4.0,68,0.00,,,0.00,meteohub,2013-06-18 23:46:00,
2013-06-18 19:51:00,85.8,74.5,30.00,South,180,4.0,6.0,69,0.00,,,0.00,meteohub,2013-06-18 23:51:00,
2013-06-18 19:56:00,85.3,73.9,30.00,SE,135,4.0,6.0,69,0.00,,,0.00,meteohub,2013-06-18 23:56:00,
2013-06-18 20:01:00,85.5,74.5,30.00,South,180,4.0,5.0,70,0.00,,,0.00,meteohub,2013-06-19 00:01:00,
2013-06-18 20:06:00,85.1,74.1,30.00,South,180,2.0,5.0,70,0.00,,,0.00,meteohub,2013-06-19 00:06:00,
2013-06-18 20:11:00,85.1,74.7,30.00,South,180,2.0,6.0,71,0.00,,,0.00,meteohub,2013-06-19 00:11:00,
2013-06-18 20:16:00,84.9,74.5,29.99,West,270,1.0,6.0,71,0.00,,,0.00,meteohub,2013-06-19 00:16:00,
2013-06-18 20:21:00,84.7,74.3,30.00,East,90,1.0,6.0,71,0.00,,,0.00,meteohub,2013-06-19 00:21:00,
2013-06-18 20:26:00,84.6,74.1,30.00,South,180,3.0,4.0,71,0.00,,,0.00,meteohub,2013-06-19 00:26:00,
2013-06-18 20:31:00,84.6,74.5,30.00,SW,225,2.0,4.0,72,0.00,,,0.00,meteohub,2013-06-19 00:31:00,
2013-06-18 20:36:00,84.4,74.8,30.00,SE,135,3.0,4.0,73,0.00,,,0.00,meteohub,2013-06-19 00:36:00,
2013-06-18 20:41:00,84.0,74.5,30.01,East,90,2.0,4.0,73,0.00,,,0.00,meteohub,2013-06-19 00:41:00,
2013-06-18 20:47:00,84.0,74.5,30.01,WNW,293,3.0,4.0,73,0.00,,,0.00,meteohub,2013-06-19 00:47:00,
2013-06-18 20:52:00,84.0,74.5,30.01,SW,225,1.0,4.0,73,0.00,,,0.00,meteohub,2013-06-19 00:52:00,
2013-06-18 20:57:00,83.8,74.7,30.01,SE,135,2.0,4.0,74,0.00,,,0.00,meteohub,2013-06-19 00:57:00,
2013-06-18 21:02:00,84.0,74.8,30.01,South,180,4.0,4.0,74,0.00,,,0.00,meteohub,2013-06-19 01:02:00,
2013-06-18 21:07:00,83.8,75.0,30.01,East,90,2.0,4.0,75,0.00,,,0.00,meteohub,2013-06-19 01:07:00,
2013-06-18 21:12:00,83.7,74.8,30.01,South,180,2.0,4.0,75,0.00,,,0.00,meteohub,2013-06-19 01:12:00,
2013-06-18 21:17:00,83.7,74.8,30.01,East,90,2.0,4.0,75,0.00,,,0.00,meteohub,2013-06-19 01:17:00,
2013-06-18 21:22:00,83.7,75.2,30.01,East,90,2.0,3.0,76,0.00,,,0.00,meteohub,2013-06-19 01:22:00,
2013-06-18 21:27:00,83.7,74.8,30.01,East,90,2.0,4.0,75,0.00,,,0.00,meteohub,2013-06-19 01:27:00,
2013-06-18 21:32:00,83.5,75.0,30.01,South,180,2.0,4.0,76,0.00,,,0.00,meteohub,2013-06-19 01:32:00,
2013-06-18 21:37:00,83.5,75.6,30.01,South,180,2.0,4.0,77,0.00,,,0.00,meteohub,2013-06-19 01:37:00,
2013-06-18 21:42:00,83.5,75.6,30.02,SE,135,4.0,4.0,77,0.00,,,0.00,meteohub,2013-06-19 01:42:00,
2013-06-18 21:47:00,83.7,75.2,30.02,South,180,2.0,4.0,76,0.00,,,0.00,meteohub,2013-06-19 01:47:00,
2013-06-18 21:52:00,83.7,75.2,30.02,East,90,2.0,4.0,76,0.00,,,0.00,meteohub,2013-06-19 01:52:00,
2013-06-18 21:57:00,83.5,75.0,30.02,SE,135,2.0,4.0,76,0.00,,,0.00,meteohub,2013-06-19 01:57:00,
2013-06-18 22:02:00,83.5,75.0,30.02,South,180,0.0,2.0,76,0.00,,,0.00,meteohub,2013-06-19 02:02:00,
2013-06-18 22:07:00,83.3,75.4,30.03,South,180,1.0,2.0,77,0.00,,,0.00,meteohub,2013-06-19 02:07:00,
2013-06-18 22:12:00,83.3,75.7,30.03,East,90,1.0,4.0,78,0.00,,,0.00,meteohub,2013-06-19 02:12:00,
2013-06-18 22:17:00,83.3,75.7,30.03,East,90,1.0,4.0,78,0.00,,,0.00,meteohub,2013-06-19 02:17:00,
2013-06-18 22:22:00,83.1,75.6,30.03,East,90,1.0,4.0,78,0.00,,,0.00,meteohub,2013-06-19 02:22:00,
2013-06-18 22:27:00,82.9,75.4,30.03,SE,135,0.0,4.0,78,0.00,,,0.00,meteohub,2013-06-19 02:27:00,
2013-06-18 22:32:00,82.9,75.7,30.03,South,180,1.0,4.0,79,0.00,,,0.00,meteohub,2013-06-19 02:32:00,
2013-06-18 22:37:00,82.8,75.6,30.03,SE,135,1.0,4.0,79,0.00,,,0.00,meteohub,2013-06-19 02:37:00,
2013-06-18 22:42:00,82.8,75.6,30.03,East,90,1.0,2.0,79,0.00,,,0.00,meteohub,2013-06-19 02:42:00,
2013-06-18 22:47:00,82.6,75.4,30.03,South,180,2.0,2.0,79,0.00,,,0.00,meteohub,2013-06-19 02:47:00,
2013-06-18 22:52:00,82.6,75.4,30.03,East,90,0.0,2.0,79,0.00,,,0.00,meteohub,2013-06-19 02:52:00,
2013-06-18 22:57:00,82.6,75.4,30.03,SE,135,2.0,4.0,79,0.00,,,0.00,meteohub,2013-06-19 02:57:00,
2013-06-18 23:02:00,82.6,75.4,30.03,South,180,2.0,4.0,79,0.00,,,0.00,meteohub,2013-06-19 03:02:00,
2013-06-18 23:07:00,82.8,75.6,30.03,East,90,1.0,4.0,79,0.00,,,0.00,meteohub,2013-06-19 03:07:00,
2013-06-18 23:12:00,82.8,75.6,30.03,East,90,2.0,4.0,79,0.00,,,0.00,meteohub,2013-06-19 03:12:00,
2013-06-18 23:17:00,82.8,75.2,30.03,SE,135,2.0,2.0,78,0.00,,,0.00,meteohub,2013-06-19 03:17:00,
2013-06-18 23:22:00,82.8,75.2,30.03,South,180,2.0,4.0,78,0.00,,,0.00,meteohub,2013-06-19 03:22:00,
2013-06-18 23:27:00,82.8,75.6,30.03,SE,135,2.0,4.0,79,0.00,,,0.00,meteohub,2013-06-19 03:27:00,
2013-06-18 23:32:00,82.9,75.4,30.03,South,180,4.0,4.0,78,0.00,,,0.00,meteohub,2013-06-19 03:32:00,
2013-06-18 23:37:00,82.9,75.4,30.03,East,90,2.0,4.0,78,0.00,,,0.00,meteohub,2013-06-19 03:37:00,
2013-06-18 23:42:00,82.8,75.2,30.03,SE,135,1.0,4.0,78,0.00,,,0.00,meteohub,2013-06-19 03:42:00,
2013-06-18 23:47:00,82.6,75.4,30.03,SE,135,0.0,4.0,79,0.00,,,0.00,meteohub,2013-06-19 03:47:00,
2013-06-18 23:52:00,82.4,75.6,30.02,East,90,2.0,2.0,80,0.00,,,0.00,meteohub,2013-06-19 03:52:00,
2013-06-18 23:57:00,82.2,75.4,30.03,East,90,1.0,4.0,80,0.00,,,0.00,meteohub,2013-06-19 03:57:00,